Time,TemperatureF,DewpointF,PressureIn,WindDirection,WindDirectionDegrees,WindSpeedMPH,WindSpeedGustMPH,Humidity,HourlyPrecipIn,Conditions,Clouds,dailyrainin,SoftwareType,DateUTC
2013-07-16 00:01:00,67.6,64.2,30.22,ENE,71,1.0,1.0,89,0.00,,SCT070,0.00,VWS V14.01,2013-07-16 04:01:00,
2013-07-16 00:02:00,67.6,64.6,30.23,ENE,71,1.0,2.0,90,0.00,,SCT070,0.00,VWS V14.01,2013-07-16 04:02:00,
2013-07-16 00:07:00,67.4,64.4,30.23,ENE,71,1.0,2.0,90,0.00,,BKN060,0.00,VWS V14.01,2013-07-16 04:07:00,
2013-07-16 00:12:00,67.1,64.1,30.22,ENE,71,0.0,1.0,90,0.00,,BKN060,0.00,VWS V14.01,2013-07-16 04:12:00,
2013-07-16 00:17:00,67.0,64.0,30.22,ENE,71,1.0,1.0,90,0.00,,BKN060,0.00,VWS V14.01,2013-07-16 04:17:00,
2013-07-16 00:22:00,66.8,63.8,30.22,ENE,71,0.0,1.0,90,0.00,,BKN060,0.00,VWS V14.01,2013-07-16 04:22:00,
2013-07-16 00:27:00,66.8,64.1,30.22,ENE,71,0.0,0.0,91,0.00,,BKN060,0.00,VWS V14.01,2013-07-16 04:27:00,
2013-07-16 00:32:00,66.8,64.1,30.22,ENE,71,2.0,2.0,91,0.00,,BKN060,0.00,VWS V14.01,2013-07-16 04:32:00,
2013-07-16 00:37:00,66.6,63.9,30.22,ESE,102,0.0,1.0,91,0.00,,BKN060,0.00,VWS V14.01,2013-07-16 04:37:00,
2013-07-16 00:42:00,66.6,63.9,30.22,ESE,105,0.0,1.0,91,0.00,,BKN060,0.00,VWS V14.01,2013-07-16 04:42:00,
2013-07-16 00:47:00,66.6,64.2,30.22,ESE,105,0.0,1.0,92,0.00,,BKN060,0.00,VWS V14.01,2013-07-16 04:47:00,
2013-07-16 00:52:00,66.6,64.2,30.22,ESE,105,1.0,1.0,92,0.00,,BKN060,0.00,VWS V14.01,2013-07-16 04:52:00,
2013-07-16 00:57:00,66.6,64.2,30.22,ESE,105,2.0,2.0,92,0.00,,BKN060,0.00,VWS V14.01,2013-07-16 04:57:00,
2013-07-16 01:02:00,66.5,64.1,30.22,ESE,105,0.0,0.0,92,0.00,,CLR,0.00,VWS V14.01,2013-07-16 05:02:00,
2013-07-16 01:07:00,66.5,63.8,30.22,ESE,105,1.0,1.0,91,0.00,,CLR,0.00,VWS V14.01,2013-07-16 05:07:00,
2013-07-16 01:12:00,66.3,63.6,30.22,ESE,105,0.0,1.0,91,0.00,,CLR,0.00,VWS V14.01,2013-07-16 05:12:00,
2013-07-16 01:18:00,66.1,63.4,30.22,ESE,105,1.0,1.0,91,0.00,,CLR,0.00,VWS V14.01,2013-07-16 05:18:00,
2013-07-16 01:23:00,66.0,63.3,30.21,ESE,105,1.0,1.0,91,0.00,,CLR,0.00,VWS V14.01,2013-07-16 05:23:00,
2013-07-16 01:28:00,65.9,63.2,30.21,ESE,105,1.0,1.0,91,0.00,,CLR,0.00,VWS V14.01,2013-07-16 05:28:00,
2013-07-16 01:33:00,65.8,63.1,30.21,ESE,105,0.0,0.0,91,0.00,,CLR,0.00,VWS V14.01,2013-07-16 05:33:00,
2013-07-16 01:38:00,65.8,63.4,30.21,ESE,105,1.0,1.0,92,0.00,,CLR,0.00,VWS V14.01,2013-07-16 05:38:00,
2013-07-16 01:43:00,65.8,63.4,30.21,ESE,105,0.0,1.0,92,0.00,,CLR,0.00,VWS V14.01,2013-07-16 05:43:00,
2013-07-16 01:48:00,65.6,63.2,30.21,ESE,105,0.0,1.0,92,0.00,,CLR,0.00,VWS V14.01,2013-07-16 05:48:00,
2013-07-16 01:53:00,65.6,63.2,30.21,ESE,105,1.0,2.0,92,0.00,,CLR,0.00,VWS V14.01,2013-07-16 05:53:00,
2013-07-16 01:58:00,65.6,63.5,30.21,ESE,105,0.0,1.0,93,0.00,,CLR,0.00,VWS V14.01,2013-07-16 05:58:00,
2013-07-16 02:03:00,65.4,63.0,30.21,ESE,105,1.0,1.0,92,0.00,,SCT060,0.00,VWS V14.01,2013-07-16 06:03:00,
2013-07-16 02:08:00,65.3,63.2,30.21,ESE,105,0.0,0.0,93,0.00,,SCT060,0.00,VWS V14.01,2013-07-16 06:08:00,
2013-07-16 02:13:00,65.2,62.8,30.21,ESE,105,0.0,1.0,92,0.00,,SCT060,0.00,VWS V14.01,2013-07-16 06:13:00,
2013-07-16 02:18:00,65.0,62.6,30.22,ESE,105,0.0,1.0,92,0.00,,SCT060,0.00,VWS V14.01,2013-07-16 06:18:00,
2013-07-16 02:23:00,64.9,62.5,30.22,ESE,105,0.0,0.0,92,0.00,,SCT060,0.00,VWS V14.01,2013-07-16 06:23:00,
2013-07-16 02:28:00,64.8,62.7,30.21,ESE,105,1.0,1.0,93,0.00,,SCT060,0.00,VWS V14.01,2013-07-16 06:28:00,
2013-07-16 02:33:00,64.8,62.7,30.22,ESE,105,0.0,1.0,93,0.00,,SCT060,0.00,VWS V14.01,2013-07-16 06:33:00,
2013-07-16 02:38:00,64.7,62.9,30.22,ESE,105,1.0,1.0,94,0.00,,SCT060,0.00,VWS V14.01,2013-07-16 06:38:00,
2013-07-16 02:43:00,64.6,62.8,30.22,ESE,105,1.0,1.0,94,0.00,,SCT060,0.00,VWS V14.01,2013-07-16 06:43:00,
2013-07-16 02:48:00,64.6,62.8,30.22,ESE,105,0.0,0.0,94,0.00,,SCT060,0.00,VWS V14.01,2013-07-16 06:48:00,
2013-07-16 02:53:00,64.5,62.7,30.22,ESE,105,0.0,0.0,94,0.00,,SCT060,0.00,VWS V14.01,2013-07-16 06:53:00,
2013-07-16 02:58:00,64.5,62.4,30.22,ESE,105,0.0,0.0,93,0.00,,SCT060,0.00,VWS V14.01,2013-07-16 06:58:00,
2013-07-16 03:03:00,64.3,62.2,30.22,ESE,105,0.0,1.0,93,0.00,,FEW060,0.00,VWS V14.01,2013-07-16 07:03:00,
2013-07-16 03:08:00,64.2,62.1,30.22,ESE,105,0.0,0.0,93,0.00,,FEW060,0.00,VWS V14.01,2013-07-16 07:08:00,
2013-07-16 03:13:00,64.1,62.3,30.22,ESE,105,1.0,2.0,94,0.00,,FEW060,0.00,VWS V14.01,2013-07-16 07:13:00,
2013-07-16 03:18:00,64.1,62.3,30.22,ESE,105,0.0,1.0,94,0.00,,FEW060,0.00,VWS V14.01,2013-07-16 07:18:00,
2013-07-16 03:24:00,64.1,62.3,30.22,ESE,105,1.0,1.0,94,0.00,,FEW060,0.00,VWS V14.01,2013-07-16 07:24:00,
2013-07-16 03:29:00,64.1,62.6,30.22,ESE,105,0.0,1.0,95,0.00,,FEW060,0.00,VWS V14.01,2013-07-16 07:29:00,
2013-07-16 03:34:00,64.1,62.6,30.22,ESE,105,0.0,0.0,95,0.00,,FEW060,0.00,VWS V14.01,2013-07-16 07:34:00,
2013-07-16 03:39:00,64.0,62.5,30.22,ESE,105,1.0,1.0,95,0.00,,FEW060,0.00,VWS V14.01,2013-07-16 07:39:00,
2013-07-16 03:44:00,64.1,62.6,30.22,ESE,105,0.0,1.0,95,0.00,,FEW060,0.00,VWS V14.01,2013-07-16 07:44:00,
2013-07-16 03:49:00,64.1,62.6,30.22,ESE,105,0.0,0.0,95,0.00,,FEW060,0.00,VWS V14.01,2013-07-16 07:49:00,
2013-07-16 03:54:00,64.0,62.5,30.22,ESE,105,0.0,0.0,95,0.00,,FEW060,0.00,VWS V14.01,2013-07-16 07:54:00,
2013-07-16 03:59:00,64.0,62.5,30.22,ESE,105,0.0,0.0,95,0.00,,FEW060,0.00,VWS V14.01,2013-07-16 07:59:00,
2013-07-16 04:04:00,63.9,62.4,30.22,ESE,105,0.0,0.0,95,0.00,,CLR,0.00,VWS V14.01,2013-07-16 08:04:00,
2013-07-16 04:09:00,63.8,62.0,30.22,ESE,105,0.0,0.0,94,0.00,,CLR,0.00,VWS V14.01,2013-07-16 08:09:00,
2013-07-16 04:14:00,63.8,62.0,30.22,ESE,105,0.0,1.0,94,0.00,,CLR,0.00,VWS V14.01,2013-07-16 08:14:00,
2013-07-16 04:19:00,63.7,62.0,30.22,ESE,105,0.0,0.0,94,0.00,,CLR,0.00,VWS V14.01,2013-07-16 08:19:00,
2013-07-16 04:24:00,63.6,62.2,30.22,ESE,105,0.0,1.0,95,0.00,,CLR,0.00,VWS V14.01,2013-07-16 08:24:00,
2013-07-16 04:29:00,63.6,62.2,30.22,ESE,105,0.0,0.0,95,0.00,,CLR,0.00,VWS V14.01,2013-07-16 08:29:00,
2013-07-16 04:34:00,63.5,61.8,30.22,ESE,105,1.0,1.0,94,0.00,,CLR,0.00,VWS V14.01,2013-07-16 08:34:00,
2013-07-16 04:39:00,63.4,61.7,30.22,ESE,105,0.0,1.0,94,0.00,,CLR,0.00,VWS V14.01,2013-07-16 08:39:00,
2013-07-16 04:44:00,63.3,61.5,30.22,ESE,105,1.0,1.0,94,0.00,,CLR,0.00,VWS V14.01,2013-07-16 08:44:00,
2013-07-16 04:49:00,63.3,61.5,30.22,ESE,105,1.0,1.0,94,0.00,,CLR,0.00,VWS V14.01,2013-07-16 08:49:00,
2013-07-16 04:54:00,63.4,62.0,30.22,ESE,105,1.0,1.0,95,0.00,,CLR,0.00,VWS V14.01,2013-07-16 08:54:00,
2013-07-16 04:59:00,63.3,61.8,30.22,ESE,105,0.0,1.0,95,0.00,,CLR,0.00,VWS V14.01,2013-07-16 08:59:00,
2013-07-16 05:04:00,63.3,61.8,30.22,SSE,165,1.0,1.0,95,0.00,,OVC060,0.00,VWS V14.01,2013-07-16 09:04:00,
2013-07-16 05:09:00,63.3,61.8,30.22,SE,138,1.0,2.0,95,0.00,,OVC060,0.00,VWS V14.01,2013-07-16 09:09:00,
2013-07-16 05:14:00,63.3,61.8,30.22,SE,138,1.0,1.0,95,0.00,,OVC060,0.00,VWS V14.01,2013-07-16 09:14:00,
2013-07-16 05:19:00,63.3,61.8,30.22,SSE,149,1.0,1.0,95,0.00,,OVC060,0.00,VWS V14.01,2013-07-16 09:19:00,
2013-07-16 05:24:00,63.2,61.8,30.22,SSE,149,1.0,1.0,95,0.00,,OVC060,0.00,VWS V14.01,2013-07-16 09:24:00,
2013-07-16 05:29:00,63.1,61.3,30.22,SSE,149,0.0,0.0,94,0.00,,OVC060,0.00,VWS V14.01,2013-07-16 09:29:00,
2013-07-16 05:34:00,63.1,61.7,30.22,SSE,149,0.0,1.0,95,0.00,,OVC060,0.00,VWS V14.01,2013-07-16 09:34:00,
2013-07-16 05:40:00,63.0,61.5,30.22,SSE,149,0.0,0.0,95,0.00,,OVC060,0.00,VWS V14.01,2013-07-16 09:40:00,
2013-07-16 05:45:00,63.0,61.5,30.22,SSE,149,0.0,0.0,95,0.00,,OVC060,0.00,VWS V14.01,2013-07-16 09:45:00,
2013-07-16 05:50:00,62.9,61.5,30.22,SSE,149,0.0,0.0,95,0.00,,OVC060,0.00,VWS V14.01,2013-07-16 09:50:00,
2013-07-16 05:55:00,62.9,61.5,30.23,SSE,149,0.0,0.0,95,0.00,,OVC060,0.00,VWS V14.01,2013-07-16 09:55:00,
2013-07-16 06:00:00,62.8,61.3,30.23,SSE,151,0.0,0.0,95,0.00,,OVC060,0.00,VWS V14.01,2013-07-16 10:00:00,
2013-07-16 06:05:00,62.8,61.3,30.22,SSE,151,0.0,0.0,95,0.00,,BKN080,0.00,VWS V14.01,2013-07-16 10:05:00,
2013-07-16 06:10:00,62.7,61.2,30.23,SSE,151,0.0,0.0,95,0.00,,BKN080,0.00,VWS V14.01,2013-07-16 10:10:00,
2013-07-16 06:15:00,62.7,61.2,30.23,SSE,151,1.0,1.0,95,0.00,,BKN080,0.00,VWS V14.01,2013-07-16 10:15:00,
2013-07-16 06:20:00,62.7,61.2,30.23,SSE,151,1.0,1.0,95,0.00,,BKN080,0.00,VWS V14.01,2013-07-16 10:20:00,
2013-07-16 06:25:00,62.7,61.2,30.23,SSE,151,1.0,1.0,95,0.00,,BKN080,0.00,VWS V14.01,2013-07-16 10:25:00,
2013-07-16 06:30:00,62.9,61.8,30.23,NNW,348,0.0,1.0,96,0.00,,BKN080,0.00,VWS V14.01,2013-07-16 10:30:00,
2013-07-16 06:35:00,63.0,61.8,30.23,SSW,200,0.0,1.0,96,0.00,,BKN080,0.00,VWS V14.01,2013-07-16 10:35:00,
2013-07-16 06:40:00,63.0,61.8,30.23,SSW,200,1.0,1.0,96,0.00,,BKN080,0.00,VWS V14.01,2013-07-16 10:40:00,
2013-07-16 06:45:00,63.1,61.9,30.23,SSW,200,0.0,1.0,96,0.00,,BKN080,0.00,VWS V14.01,2013-07-16 10:45:00,
2013-07-16 06:50:00,63.2,62.0,30.23,SSW,200,0.0,1.0,96,0.00,,BKN080,0.00,VWS V14.01,2013-07-16 10:50:00,
2013-07-16 06:55:00,63.3,62.1,30.23,SSW,200,0.0,1.0,96,0.00,,BKN080,0.00,VWS V14.01,2013-07-16 10:55:00,
2013-07-16 07:00:00,63.5,62.3,30.23,SSE,164,1.0,1.0,96,0.00,,BKN080,0.00,VWS V14.01,2013-07-16 11:00:00,
2013-07-16 07:05:00,63.8,62.9,30.23,SSE,163,0.0,0.0,97,0.00,,OVC095,0.00,VWS V14.01,2013-07-16 11:05:00,
2013-07-16 07:10:00,64.1,62.9,30.23,SSE,164,0.0,0.0,96,0.00,,OVC095,0.00,VWS V14.01,2013-07-16 11:10:00,
2013-07-16 07:15:00,64.4,63.2,30.23,SSE,164,0.0,0.0,96,0.00,,OVC095,0.00,VWS V14.01,2013-07-16 11:15:00,
2013-07-16 07:20:00,64.7,63.5,30.23,SSE,164,1.0,1.0,96,0.00,,OVC095,0.00,VWS V14.01,2013-07-16 11:20:00,
2013-07-16 07:25:00,65.1,64.2,30.23,SSE,164,0.0,0.0,97,0.00,,OVC095,0.00,VWS V14.01,2013-07-16 11:25:00,
2013-07-16 07:30:00,65.6,64.4,30.23,SSE,164,1.0,1.0,96,0.00,,OVC095,0.00,VWS V14.01,2013-07-16 11:30:00,
2013-07-16 07:35:00,66.1,64.9,30.23,South,169,0.0,0.0,96,0.00,,OVC095,0.00,VWS V14.01,2013-07-16 11:35:00,
2013-07-16 07:40:00,66.7,65.5,30.23,South,169,1.0,1.0,96,0.00,,OVC095,0.00,VWS V14.01,2013-07-16 11:40:00,
2013-07-16 07:45:00,67.4,66.2,30.23,SSE,168,1.0,1.0,96,0.00,,OVC095,0.00,VWS V14.01,2013-07-16 11:45:00,
2013-07-16 07:50:00,68.0,66.8,30.23,ESE,105,0.0,0.0,96,0.00,,OVC095,0.00,VWS V14.01,2013-07-16 11:50:00,
2013-07-16 07:55:00,68.7,67.5,30.22,ESE,105,0.0,0.0,96,0.00,,OVC095,0.00,VWS V14.01,2013-07-16 11:55:00,
2013-07-16 08:01:00,69.5,68.3,30.22,ESE,105,0.0,0.0,96,0.00,,OVC095,0.00,VWS V14.01,2013-07-16 12:01:00,
2013-07-16 08:05:00,70.3,68.8,30.22,ESE,105,0.0,1.0,95,0.00,,OVC090,0.00,VWS V14.01,2013-07-16 12:05:00,
2013-07-16 08:10:00,71.2,69.4,30.22,SSE,150,0.0,1.0,94,0.00,,OVC090,0.00,VWS V14.01,2013-07-16 12:10:00,
2013-07-16 08:16:00,72.0,69.6,30.22,SW,215,0.0,0.0,92,0.00,,OVC090,0.00,VWS V14.01,2013-07-16 12:16:00,
2013-07-16 08:21:00,72.7,69.6,30.22,SW,226,0.0,1.0,90,0.00,,OVC090,0.00,VWS V14.01,2013-07-16 12:21:00,
2013-07-16 08:26:00,73.5,70.1,30.23,SW,226,1.0,1.0,89,0.00,,OVC090,0.00,VWS V14.01,2013-07-16 12:26:00,
2013-07-16 08:31:00,74.3,69.8,30.22,SW,226,1.0,2.0,86,0.00,,OVC090,0.00,VWS V14.01,2013-07-16 12:31:00,
2013-07-16 08:36:00,75.0,70.5,30.22,SW,226,0.0,0.0,86,0.00,,OVC090,0.00,VWS V14.01,2013-07-16 12:36:00,
2013-07-16 08:41:00,75.7,70.9,30.22,NNW,327,0.0,0.0,85,0.00,,OVC090,0.00,VWS V14.01,2013-07-16 12:41:00,
2013-07-16 08:46:00,76.4,70.5,30.23,WNW,300,1.0,2.0,82,0.00,,OVC090,0.00,VWS V14.01,2013-07-16 12:46:00,
2013-07-16 08:51:00,76.9,70.3,30.23,West,279,1.0,2.0,80,0.00,,OVC090,0.00,VWS V14.01,2013-07-16 12:51:00,
2013-07-16 08:56:00,77.5,70.1,30.23,West,276,3.0,3.0,78,0.00,,OVC090,0.00,VWS V14.01,2013-07-16 12:56:00,
2013-07-16 09:01:00,77.9,69.3,30.23,NNW,338,2.0,2.0,75,0.00,,OVC090,0.00,VWS V14.01,2013-07-16 13:01:00,
2013-07-16 09:06:00,78.4,69.4,30.23,NNW,338,1.0,2.0,74,0.00,,-RA,0.00,VWS V14.01,2013-07-16 13:06:00,
2013-07-16 09:11:00,79.0,69.2,30.23,West,269,2.0,2.0,72,0.00,,-RA,0.00,VWS V14.01,2013-07-16 13:11:00,
2013-07-16 09:16:00,79.5,69.3,30.23,West,273,3.0,4.0,71,0.00,,-RA,0.00,VWS V14.01,2013-07-16 13:16:00,
2013-07-16 09:21:00,79.9,69.7,30.23,WSW,242,1.0,1.0,71,0.00,,-RA,0.00,VWS V14.01,2013-07-16 13:21:00,
2013-07-16 09:26:00,80.1,69.9,30.23,NNW,331,1.0,2.0,71,0.00,,-RA,0.00,VWS V14.01,2013-07-16 13:26:00,
2013-07-16 09:31:00,80.2,69.9,30.23,NW,312,1.0,1.0,71,0.00,,-RA,0.00,VWS V14.01,2013-07-16 13:31:00,
2013-07-16 09:36:00,80.3,70.1,30.23,NNW,335,1.0,2.0,71,0.00,,-RA,0.00,VWS V14.01,2013-07-16 13:36:00,
2013-07-16 09:41:00,80.3,69.6,30.23,NW,321,0.0,1.0,70,0.00,,-RA,0.00,VWS V14.01,2013-07-16 13:41:00,
2013-07-16 09:46:00,80.7,70.4,30.23,WNW,284,3.0,3.0,71,0.00,,-RA,0.00,VWS V14.01,2013-07-16 13:46:00,
2013-07-16 09:51:00,81.0,69.9,30.23,West,269,1.0,1.0,69,0.00,,-RA,0.00,VWS V14.01,2013-07-16 13:51:00,
2013-07-16 09:56:00,81.6,70.4,30.23,WSW,246,2.0,3.0,69,0.00,,-RA,0.00,VWS V14.01,2013-07-16 13:56:00,
2013-07-16 10:01:00,82.3,71.5,30.22,West,263,2.0,2.0,70,0.00,,-RA,0.00,VWS V14.01,2013-07-16 14:01:00,
2013-07-16 10:06:00,83.0,70.9,30.22,West,274,1.0,1.0,67,0.00,,BKN085,0.00,VWS V14.01,2013-07-16 14:06:00,
2013-07-16 10:11:00,84.0,71.0,30.22,West,266,4.0,6.0,65,0.00,,BKN085,0.00,VWS V14.01,2013-07-16 14:11:00,
2013-07-16 10:16:00,84.5,71.0,30.22,NW,306,3.0,3.0,64,0.00,,BKN085,0.00,VWS V14.01,2013-07-16 14:16:00,
2013-07-16 10:22:00,84.9,70.9,30.22,WNW,301,3.0,4.0,63,0.00,,BKN085,0.00,VWS V14.01,2013-07-16 14:22:00,
2013-07-16 10:27:00,85.1,71.6,30.22,WSW,245,4.0,4.0,64,0.00,,BKN085,0.00,VWS V14.01,2013-07-16 14:27:00,
2013-07-16 10:32:00,85.2,70.7,30.22,WSW,246,5.0,6.0,62,0.00,,BKN085,0.00,VWS V14.01,2013-07-16 14:32:00,
2013-07-16 10:37:00,85.5,70.0,30.22,SW,230,4.0,5.0,60,0.00,,BKN085,0.00,VWS V14.01,2013-07-16 14:37:00,
2013-07-16 10:42:00,85.7,69.7,30.22,SW,234,1.0,2.0,59,0.00,,BKN085,0.00,VWS V14.01,2013-07-16 14:42:00,
2013-07-16 10:47:00,85.9,68.9,30.21,WSW,240,3.0,5.0,57,0.00,,BKN085,0.00,VWS V14.01,2013-07-16 14:47:00,
2013-07-16 10:52:00,86.3,70.3,30.21,WNW,303,4.0,4.0,59,0.00,,BKN085,0.00,VWS V14.01,2013-07-16 14:52:00,
2013-07-16 10:57:00,86.6,69.6,30.21,West,273,1.0,2.0,57,0.00,,BKN085,0.00,VWS V14.01,2013-07-16 14:57:00,
2013-07-16 11:02:00,87.5,70.4,30.21,SW,234,3.0,3.0,57,0.00,,BKN085,0.00,VWS V14.01,2013-07-16 15:02:00,
2013-07-16 11:07:00,87.7,67.9,30.21,WSW,254,4.0,4.0,52,0.00,,CLR,0.00,VWS V14.01,2013-07-16 15:07:00,
2013-07-16 11:12:00,87.7,67.3,30.21,WNW,302,3.0,5.0,51,0.00,,CLR,0.00,VWS V14.01,2013-07-16 15:12:00,
2013-07-16 11:17:00,87.7,69.5,30.21,NW,308,3.0,3.0,55,0.00,,CLR,0.00,VWS V14.01,2013-07-16 15:17:00,
2013-07-16 11:22:00,88.1,69.4,30.21,NW,309,7.0,8.0,54,0.00,,CLR,0.00,VWS V14.01,2013-07-16 15:22:00,
2013-07-16 11:27:00,88.0,69.3,30.21,West,259,5.0,5.0,54,0.00,,CLR,0.00,VWS V14.01,2013-07-16 15:27:00,
2013-07-16 11:32:00,87.6,69.4,30.21,NNW,328,6.0,6.0,55,0.00,,CLR,0.00,VWS V14.01,2013-07-16 15:32:00,
2013-07-16 11:37:00,87.9,69.7,30.21,NW,323,3.0,3.0,55,0.00,,CLR,0.00,VWS V14.01,2013-07-16 15:37:00,
2013-07-16 11:42:00,88.2,69.5,30.21,WNW,284,9.0,9.0,54,0.00,,CLR,0.00,VWS V14.01,2013-07-16 15:42:00,
2013-07-16 11:47:00,88.3,68.5,30.21,NNW,336,4.0,5.0,52,0.00,,CLR,0.00,VWS V14.01,2013-07-16 15:47:00,
2013-07-16 11:52:00,88.6,68.2,30.20,NW,319,5.0,10.0,51,0.00,,CLR,0.00,VWS V14.01,2013-07-16 15:52:00,
2013-07-16 11:57:00,88.7,67.1,30.20,WNW,292,5.0,5.0,49,0.00,,CLR,0.00,VWS V14.01,2013-07-16 15:57:00,
2013-07-16 12:02:00,89.0,68.5,30.20,West,268,3.0,3.0,51,0.00,,FEW026,0.00,VWS V14.01,2013-07-16 16:02:00,
2013-07-16 12:07:00,88.8,67.2,30.20,NNW,327,4.0,4.0,49,0.00,,FEW026,0.00,VWS V14.01,2013-07-16 16:07:00,
2013-07-16 12:12:00,89.3,68.2,30.20,WNW,302,3.0,5.0,50,0.00,,FEW026,0.00,VWS V14.01,2013-07-16 16:12:00,
2013-07-16 12:17:00,89.7,66.8,30.20,West,274,6.0,6.0,47,0.00,,FEW026,0.00,VWS V14.01,2013-07-16 16:17:00,
2013-07-16 12:22:00,89.4,67.1,30.20,WSW,250,3.0,3.0,48,0.00,,FEW026,0.00,VWS V14.01,2013-07-16 16:22:00,
2013-07-16 12:27:00,89.2,67.0,30.20,NNW,329,6.0,9.0,48,0.00,,FEW026,0.00,VWS V14.01,2013-07-16 16:27:00,
2013-07-16 12:32:00,88.9,66.7,30.20,SW,227,5.0,7.0,48,0.00,,FEW026,0.00,VWS V14.01,2013-07-16 16:32:00,
2013-07-16 12:37:00,89.1,66.9,30.20,NW,321,3.0,5.0,48,0.00,,FEW026,0.00,VWS V14.01,2013-07-16 16:37:00,
2013-07-16 12:42:00,89.3,67.1,30.20,WSW,245,6.0,8.0,48,0.00,,FEW026,0.00,VWS V14.01,2013-07-16 16:42:00,
2013-07-16 12:47:00,89.2,67.0,30.19,NNW,335,4.0,8.0,48,0.00,,FEW026,0.00,VWS V14.01,2013-07-16 16:47:00,
2013-07-16 12:52:00,89.1,66.9,30.19,West,266,4.0,6.0,48,0.00,,FEW026,0.00,VWS V14.01,2013-07-16 16:52:00,
2013-07-16 12:57:00,89.5,66.6,30.19,SW,223,1.0,3.0,47,0.00,,FEW026,0.00,VWS V14.01,2013-07-16 16:57:00,
2013-07-16 13:03:00,89.6,67.3,30.19,NNW,339,3.0,5.0,48,0.00,,SCT030,0.00,VWS V14.01,2013-07-16 17:03:00,
2013-07-16 13:08:00,89.8,66.3,30.19,West,259,5.0,7.0,46,0.00,,SCT030,0.00,VWS V14.01,2013-07-16 17:08:00,
2013-07-16 13:13:00,89.7,66.8,30.19,WSW,244,4.0,10.0,47,0.00,,SCT030,0.00,VWS V14.01,2013-07-16 17:13:00,
2013-07-16 13:18:00,89.5,66.6,30.19,West,275,8.0,8.0,47,0.00,,SCT030,0.00,VWS V14.01,2013-07-16 17:18:00,
2013-07-16 13:23:00,89.3,67.1,30.19,West,259,7.0,11.0,48,0.00,,SCT030,0.00,VWS V14.01,2013-07-16 17:23:00,
2013-07-16 13:28:00,89.6,66.1,30.19,West,277,7.0,10.0,46,0.00,,SCT030,0.00,VWS V14.01,2013-07-16 17:28:00,
2013-07-16 13:33:00,89.4,67.1,30.19,WSW,250,5.0,7.0,48,0.00,,SCT030,0.00,VWS V14.01,2013-07-16 17:33:00,
2013-07-16 13:38:00,89.5,66.6,30.19,NW,314,5.0,9.0,47,0.00,,SCT030,0.00,VWS V14.01,2013-07-16 17:38:00,
2013-07-16 13:43:00,89.7,67.4,30.19,SW,227,10.0,10.0,48,0.00,,SCT030,0.00,VWS V14.01,2013-07-16 17:43:00,
2013-07-16 13:48:00,89.8,66.9,30.19,West,261,6.0,8.0,47,0.00,,SCT030,0.00,VWS V14.01,2013-07-16 17:48:00,
2013-07-16 13:53:00,89.8,67.5,30.19,NNW,333,9.0,10.0,48,0.00,,SCT030,0.00,VWS V14.01,2013-07-16 17:53:00,
2013-07-16 13:58:00,89.9,67.0,30.19,WNW,298,8.0,8.0,47,0.00,,SCT030,0.00,VWS V14.01,2013-07-16 17:58:00,
2013-07-16 14:03:00,89.9,67.0,30.19,WNW,292,9.0,9.0,47,0.00,,SCT035,0.00,VWS V14.01,2013-07-16 18:03:00,
2013-07-16 14:08:00,89.9,67.0,30.19,WSW,257,5.0,7.0,47,0.00,,SCT035,0.00,VWS V14.01,2013-07-16 18:08:00,
2013-07-16 14:13:00,89.9,67.6,30.19,SSW,211,7.0,8.0,48,0.00,,SCT035,0.00,VWS V14.01,2013-07-16 18:13:00,
2013-07-16 14:18:00,90.0,68.3,30.19,WSW,246,5.0,9.0,49,0.00,,SCT035,0.00,VWS V14.01,2013-07-16 18:18:00,
2013-07-16 14:23:00,90.2,67.9,30.19,WSW,252,4.0,4.0,48,0.00,,SCT035,0.00,VWS V14.01,2013-07-16 18:23:00,
2013-07-16 14:28:00,90.0,68.3,30.19,SSW,202,5.0,8.0,49,0.00,,SCT035,0.00,VWS V14.01,2013-07-16 18:28:00,
2013-07-16 14:33:00,89.9,68.8,30.19,WSW,256,9.0,9.0,50,0.00,,SCT035,0.00,VWS V14.01,2013-07-16 18:33:00,
2013-07-16 14:38:00,89.7,68.6,30.19,WSW,252,2.0,5.0,50,0.00,,SCT035,0.00,VWS V14.01,2013-07-16 18:38:00,
2013-07-16 14:43:00,89.6,69.1,30.18,WSW,242,5.0,7.0,51,0.00,,SCT035,0.00,VWS V14.01,2013-07-16 18:43:00,
2013-07-16 14:48:00,89.7,69.2,30.18,SSW,203,5.0,8.0,51,0.00,,SCT035,0.00,VWS V14.01,2013-07-16 18:48:00,
2013-07-16 14:53:00,90.1,69.0,30.18,WSW,257,8.0,8.0,50,0.00,,SCT035,0.00,VWS V14.01,2013-07-16 18:53:00,
2013-07-16 14:58:00,89.6,69.1,30.18,WNW,286,8.0,11.0,51,0.00,,SCT035,0.00,VWS V14.01,2013-07-16 18:58:00,
2013-07-16 15:03:00,89.3,69.4,30.18,SW,216,5.0,6.0,52,0.00,,CLR,0.00,VWS V14.01,2013-07-16 19:03:00,
2013-07-16 15:08:00,89.3,69.4,30.17,SSW,200,8.0,11.0,52,0.00,,CLR,0.00,VWS V14.01,2013-07-16 19:08:00,
2013-07-16 15:13:00,89.8,70.4,30.17,WSW,249,14.0,14.0,53,0.00,,CLR,0.00,VWS V14.01,2013-07-16 19:13:00,
2013-07-16 15:18:00,90.2,70.8,30.17,SW,226,10.0,11.0,53,0.00,,CLR,0.00,VWS V14.01,2013-07-16 19:18:00,
2013-07-16 15:23:00,90.0,70.6,30.17,WNW,302,3.0,6.0,53,0.00,,CLR,0.00,VWS V14.01,2013-07-16 19:23:00,
2013-07-16 15:28:00,90.1,71.2,30.17,WNW,284,7.0,11.0,54,0.00,,CLR,0.00,VWS V14.01,2013-07-16 19:28:00,
2013-07-16 15:33:00,90.4,70.9,30.17,WNW,289,10.0,12.0,53,0.00,,CLR,0.00,VWS V14.01,2013-07-16 19:33:00,
2013-07-16 15:39:00,90.6,71.1,30.17,WSW,249,3.0,4.0,53,0.00,,CLR,0.00,VWS V14.01,2013-07-16 19:39:00,
2013-07-16 15:43:00,90.7,71.2,30.17,WSW,246,15.0,15.0,53,0.00,,CLR,0.00,VWS V14.01,2013-07-16 19:43:00,
2013-07-16 15:49:00,90.3,70.9,30.17,WSW,251,4.0,5.0,53,0.00,,CLR,0.00,VWS V14.01,2013-07-16 19:49:00,
2013-07-16 15:54:00,90.2,71.3,30.16,West,262,9.0,9.0,54,0.00,,CLR,0.00,VWS V14.01,2013-07-16 19:54:00,
2013-07-16 15:59:00,90.1,71.2,30.16,SW,236,6.0,8.0,54,0.00,,CLR,0.00,VWS V14.01,2013-07-16 19:59:00,
2013-07-16 16:04:00,90.3,71.4,30.16,WNW,284,6.0,10.0,54,0.00,,CLR,0.00,VWS V14.01,2013-07-16 20:04:00,
2013-07-16 16:09:00,90.5,71.6,30.16,NNW,340,8.0,11.0,54,0.00,,CLR,0.00,VWS V14.01,2013-07-16 20:09:00,
2013-07-16 16:10:00,90.5,71.1,30.16,WSW,249,14.0,14.0,53,0.00,,CLR,0.00,VWS V14.01,2013-07-16 20:10:00,
2013-07-16 16:15:00,90.3,71.4,30.16,WNW,286,9.0,9.0,54,0.00,,CLR,0.00,VWS V14.01,2013-07-16 20:15:00,
2013-07-16 16:20:00,90.1,71.2,30.15,West,274,9.0,9.0,54,0.00,,CLR,0.00,VWS V14.01,2013-07-16 20:20:00,
2013-07-16 16:25:00,90.4,71.5,30.15,SSW,209,3.0,3.0,54,0.00,,CLR,0.00,VWS V14.01,2013-07-16 20:25:00,
2013-07-16 16:30:00,90.9,72.0,30.15,NW,318,4.0,5.0,54,0.00,,CLR,0.00,VWS V14.01,2013-07-16 20:30:00,
2013-07-16 16:35:00,90.8,71.3,30.15,WNW,283,8.0,8.0,53,0.00,,CLR,0.00,VWS V14.01,2013-07-16 20:35:00,
2013-07-16 16:40:00,90.1,71.8,30.16,WSW,243,5.0,6.0,55,0.00,,CLR,0.00,VWS V14.01,2013-07-16 20:40:00,
2013-07-16 16:45:00,90.0,71.7,30.16,West,275,6.0,6.0,55,0.00,,CLR,0.00,VWS V14.01,2013-07-16 20:45:00,
2013-07-16 16:50:00,90.2,71.9,30.16,SSW,199,9.0,9.0,55,0.00,,CLR,0.00,VWS V14.01,2013-07-16 20:50:00,
2013-07-16 16:55:00,90.1,71.8,30.16,NNW,329,5.0,10.0,55,0.00,,CLR,0.00,VWS V14.01,2013-07-16 20:55:00,
2013-07-16 17:00:00,90.0,71.7,30.17,WSW,256,2.0,3.0,55,0.00,,CLR,0.00,VWS V14.01,2013-07-16 21:00:00,
2013-07-16 17:05:00,89.5,71.7,30.17,WNW,287,4.0,9.0,56,0.00,,CLR,0.00,VWS V14.01,2013-07-16 21:05:00,
2013-07-16 17:10:00,89.0,72.3,30.17,West,261,6.0,8.0,58,0.00,,CLR,0.00,VWS V14.01,2013-07-16 21:10:00,
2013-07-16 17:15:00,88.5,72.3,30.17,SW,224,3.0,3.0,59,0.00,,CLR,0.00,VWS V14.01,2013-07-16 21:15:00,
2013-07-16 17:20:00,88.6,72.4,30.17,WSW,251,5.0,6.0,59,0.00,,CLR,0.00,VWS V14.01,2013-07-16 21:20:00,
2013-07-16 17:25:00,88.8,72.1,30.17,SW,218,4.0,5.0,58,0.00,,CLR,0.00,VWS V14.01,2013-07-16 21:25:00,
2013-07-16 17:30:00,88.5,72.3,30.17,WSW,244,5.0,7.0,59,0.00,,CLR,0.00,VWS V14.01,2013-07-16 21:30:00,
2013-07-16 17:35:00,88.2,72.6,30.17,SW,214,5.0,7.0,60,0.00,,CLR,0.00,VWS V14.01,2013-07-16 21:35:00,
2013-07-16 17:40:00,87.8,72.7,30.16,NW,314,3.0,5.0,61,0.00,,CLR,0.00,VWS V14.01,2013-07-16 21:40:00,
2013-07-16 17:45:00,87.4,72.3,30.16,West,277,8.0,8.0,61,0.00,,CLR,0.00,VWS V14.01,2013-07-16 21:45:00,
2013-07-16 17:50:00,87.4,72.3,30.16,WSW,251,2.0,3.0,61,0.00,,CLR,0.00,VWS V14.01,2013-07-16 21:50:00,
2013-07-16 17:55:00,87.1,72.5,30.17,WNW,283,2.0,4.0,62,0.00,,CLR,0.00,VWS V14.01,2013-07-16 21:55:00,
2013-07-16 18:00:00,86.8,72.7,30.16,WSW,252,2.0,4.0,63,0.00,,CLR,0.00,VWS V14.01,2013-07-16 22:00:00,
2013-07-16 18:05:00,86.6,73.0,30.16,SW,219,3.0,3.0,64,0.00,,CLR,0.00,VWS V14.01,2013-07-16 22:05:00,
2013-07-16 18:10:00,86.9,73.3,30.16,WNW,302,5.0,5.0,64,0.00,,CLR,0.00,VWS V14.01,2013-07-16 22:10:00,
2013-07-16 18:15:00,86.6,73.0,30.16,West,277,3.0,3.0,64,0.00,,CLR,0.00,VWS V14.01,2013-07-16 22:15:00,
2013-07-16 18:20:00,86.3,72.7,30.16,WSW,237,4.0,5.0,64,0.00,,CLR,0.00,VWS V14.01,2013-07-16 22:20:00,
2013-07-16 18:25:00,85.8,72.7,30.15,West,268,2.0,4.0,65,0.00,,CLR,0.00,VWS V14.01,2013-07-16 22:25:00,
2013-07-16 18:30:00,85.4,72.8,30.15,West,273,4.0,4.0,66,0.00,,CLR,0.00,VWS V14.01,2013-07-16 22:30:00,
2013-07-16 18:35:00,85.1,72.5,30.15,SSW,205,5.0,5.0,66,0.00,,CLR,0.00,VWS V14.01,2013-07-16 22:35:00,
2013-07-16 18:40:00,85.0,72.4,30.15,West,266,3.0,4.0,66,0.00,,CLR,0.00,VWS V14.01,2013-07-16 22:40:00,
2013-07-16 18:45:00,85.0,72.4,30.15,SW,222,3.0,5.0,66,0.00,,CLR,0.00,VWS V14.01,2013-07-16 22:45:00,
2013-07-16 18:50:00,85.0,72.4,30.14,WSW,243,2.0,3.0,66,0.00,,CLR,0.00,VWS V14.01,2013-07-16 22:50:00,
2013-07-16 18:55:00,85.1,72.9,30.14,WSW,239,7.0,7.0,67,0.00,,CLR,0.00,VWS V14.01,2013-07-16 22:55:00,
2013-07-16 19:01:00,85.1,72.5,30.13,SW,225,8.0,12.0,66,0.00,,CLR,0.00,VWS V14.01,2013-07-16 23:01:00,
2013-07-16 19:06:00,84.9,72.7,30.13,West,259,5.0,8.0,67,0.00,,CLR,0.00,VWS V14.01,2013-07-16 23:06:00,
2013-07-16 19:13:00,84.6,72.4,30.13,South,188,2.0,2.0,67,0.00,,CLR,0.00,VWS V14.01,2013-07-16 23:13:00,
2013-07-16 19:18:00,84.5,72.8,30.13,SW,222,4.0,4.0,68,0.00,,CLR,0.00,VWS V14.01,2013-07-16 23:18:00,
2013-07-16 19:23:00,84.3,72.6,30.13,SW,236,2.0,2.0,68,0.00,,CLR,0.00,VWS V14.01,2013-07-16 23:23:00,
2013-07-16 19:29:00,84.2,72.9,30.13,SW,214,3.0,6.0,69,0.00,,CLR,0.00,VWS V14.01,2013-07-16 23:29:00,
2013-07-16 19:34:00,84.1,72.8,30.13,SW,215,4.0,4.0,69,0.00,,CLR,0.00,VWS V14.01,2013-07-16 23:34:00,
2013-07-16 19:39:00,83.9,72.7,30.13,SW,235,1.0,2.0,69,0.00,,CLR,0.00,VWS V14.01,2013-07-16 23:39:00,
2013-07-16 19:44:00,83.9,73.1,30.13,SW,222,3.0,3.0,70,0.00,,CLR,0.00,VWS V14.01,2013-07-16 23:44:00,
2013-07-16 19:49:00,83.8,72.6,30.13,SW,217,1.0,1.0,69,0.00,,CLR,0.00,VWS V14.01,2013-07-16 23:49:00,
2013-07-16 19:54:00,83.7,72.9,30.13,WSW,241,5.0,5.0,70,0.00,,CLR,0.00,VWS V14.01,2013-07-16 23:54:00,
2013-07-16 19:59:00,83.5,72.3,30.13,SW,219,6.0,7.0,69,0.00,,CLR,0.00,VWS V14.01,2013-07-16 23:59:00,
2013-07-16 20:04:00,83.2,72.4,30.13,WSW,252,3.0,4.0,70,0.00,,CLR,0.00,VWS V14.01,2013-07-17 00:04:00,
2013-07-16 20:09:00,83.0,72.2,30.13,SW,215,5.0,6.0,70,0.00,,CLR,0.00,VWS V14.01,2013-07-17 00:09:00,
2013-07-16 20:14:00,82.7,72.3,30.14,NW,304,3.0,6.0,71,0.00,,CLR,0.00,VWS V14.01,2013-07-17 00:14:00,
2013-07-16 20:19:00,82.4,72.5,30.14,NW,305,2.0,4.0,72,0.00,,CLR,0.00,VWS V14.01,2013-07-17 00:19:00,
2013-07-16 20:24:00,82.3,72.4,30.14,WSW,242,8.0,8.0,72,0.00,,CLR,0.00,VWS V14.01,2013-07-17 00:24:00,
2013-07-16 20:29:00,82.2,72.7,30.14,North,357,2.0,3.0,73,0.00,,CLR,0.00,VWS V14.01,2013-07-17 00:29:00,
2013-07-16 20:34:00,82.1,72.6,30.14,WSW,251,2.0,3.0,73,0.00,,CLR,0.00,VWS V14.01,2013-07-17 00:34:00,
2013-07-16 20:39:00,81.9,72.8,30.14,West,267,1.0,3.0,74,0.00,,CLR,0.00,VWS V14.01,2013-07-17 00:39:00,
2013-07-16 20:44:00,81.8,72.7,30.14,West,265,1.0,2.0,74,0.00,,CLR,0.00,VWS V14.01,2013-07-17 00:44:00,
2013-07-16 20:49:00,81.7,72.6,30.14,SW,225,7.0,9.0,74,0.00,,CLR,0.00,VWS V14.01,2013-07-17 00:49:00,
2013-07-16 20:54:00,81.6,72.5,30.13,WNW,286,2.0,3.0,74,0.00,,CLR,0.00,VWS V14.01,2013-07-17 00:54:00,
2013-07-16 20:59:00,81.4,72.3,30.13,WSW,244,10.0,10.0,74,0.00,,CLR,0.00,VWS V14.01,2013-07-17 00:59:00,
2013-07-16 21:04:00,81.3,72.2,30.13,WNW,290,3.0,4.0,74,0.00,,CLR,0.00,VWS V14.01,2013-07-17 01:04:00,
2013-07-16 21:09:00,81.1,72.0,30.13,SSW,200,2.0,3.0,74,0.00,,CLR,0.00,VWS V14.01,2013-07-17 01:09:00,
2013-07-16 21:14:00,80.9,72.2,30.13,SSW,208,2.0,4.0,75,0.00,,CLR,0.00,VWS V14.01,2013-07-17 01:14:00,
2013-07-16 21:19:00,80.7,72.0,30.13,SSW,197,3.0,4.0,75,0.00,,CLR,0.00,VWS V14.01,2013-07-17 01:19:00,
2013-07-16 21:24:00,80.5,71.8,30.13,WSW,247,3.0,3.0,75,0.00,,CLR,0.00,VWS V14.01,2013-07-17 01:24:00,
2013-07-16 21:29:00,80.3,71.7,30.13,WNW,284,1.0,2.0,75,0.00,,CLR,0.00,VWS V14.01,2013-07-17 01:29:00,
2013-07-16 21:34:00,80.1,71.9,30.13,WSW,238,1.0,2.0,76,0.00,,CLR,0.00,VWS V14.01,2013-07-17 01:34:00,
2013-07-16 21:39:00,79.9,71.7,30.13,SSW,213,4.0,4.0,76,0.00,,CLR,0.00,VWS V14.01,2013-07-17 01:39:00,
2013-07-16 21:44:00,79.7,71.5,30.13,SW,235,2.0,5.0,76,0.00,,CLR,0.00,VWS V14.01,2013-07-17 01:44:00,
2013-07-16 21:49:00,79.5,71.3,30.13,WSW,237,1.0,2.0,76,0.00,,CLR,0.00,VWS V14.01,2013-07-17 01:49:00,
2013-07-16 21:54:00,79.3,71.1,30.13,West,271,4.0,10.0,76,0.00,,CLR,0.00,VWS V14.01,2013-07-17 01:54:00,
2013-07-16 21:59:00,79.1,70.9,30.13,SSW,207,3.0,8.0,76,0.00,,CLR,0.00,VWS V14.01,2013-07-17 01:59:00,
2013-07-16 22:04:00,78.9,70.7,30.13,WSW,246,4.0,4.0,76,0.00,,CLR,0.00,VWS V14.01,2013-07-17 02:04:00,
2013-07-16 22:09:00,78.9,71.1,30.13,WSW,252,11.0,11.0,77,0.00,,CLR,0.00,VWS V14.01,2013-07-17 02:09:00,
2013-07-16 22:14:00,78.7,71.3,30.13,SW,216,4.0,4.0,78,0.00,,CLR,0.00,VWS V14.01,2013-07-17 02:14:00,
2013-07-16 22:19:00,78.7,71.3,30.13,WSW,244,9.0,9.0,78,0.00,,CLR,0.00,VWS V14.01,2013-07-17 02:19:00,
2013-07-16 22:24:00,78.7,71.3,30.13,West,279,7.0,7.0,78,0.00,,CLR,0.00,VWS V14.01,2013-07-17 02:24:00,
2013-07-16 22:29:00,78.7,71.3,30.13,West,263,4.0,4.0,78,0.00,,CLR,0.00,VWS V14.01,2013-07-17 02:29:00,
2013-07-16 22:35:00,78.7,71.6,30.13,WSW,242,4.0,6.0,79,0.00,,CLR,0.00,VWS V14.01,2013-07-17 02:35:00,
2013-07-16 22:40:00,78.7,71.6,30.14,SW,227,3.0,4.0,79,0.00,,CLR,0.00,VWS V14.01,2013-07-17 02:40:00,
2013-07-16 22:45:00,78.7,71.6,30.13,West,275,3.0,4.0,79,0.00,,CLR,0.00,VWS V14.01,2013-07-17 02:45:00,
2013-07-16 22:50:00,78.7,71.6,30.14,SW,222,3.0,6.0,79,0.00,,CLR,0.00,VWS V14.01,2013-07-17 02:50:00,
2013-07-16 22:55:00,78.7,71.6,30.14,SSW,200,9.0,9.0,79,0.00,,CLR,0.00,VWS V14.01,2013-07-17 02:55:00,
2013-07-16 23:00:00,78.7,71.3,30.14,WNW,284,7.0,7.0,78,0.00,,CLR,0.00,VWS V14.01,2013-07-17 03:00:00,
2013-07-16 23:05:00,78.7,71.3,30.14,WSW,244,5.0,11.0,78,0.00,,CLR,0.00,VWS V14.01,2013-07-17 03:05:00,
2013-07-16 23:10:00,78.8,71.7,30.14,WNW,286,2.0,7.0,79,0.00,,CLR,0.00,VWS V14.01,2013-07-17 03:10:00,
2013-07-16 23:15:00,78.8,71.7,30.14,WSW,242,4.0,7.0,79,0.00,,CLR,0.00,VWS V14.01,2013-07-17 03:15:00,
2013-07-16 23:20:00,78.8,71.7,30.14,West,281,9.0,9.0,79,0.00,,CLR,0.00,VWS V14.01,2013-07-17 03:20:00,
2013-07-16 23:25:00,78.7,71.6,30.14,WSW,248,3.0,6.0,79,0.00,,CLR,0.00,VWS V14.01,2013-07-17 03:25:00,
2013-07-16 23:30:00,78.7,71.6,30.14,WNW,286,7.0,9.0,79,0.00,,CLR,0.00,VWS V14.01,2013-07-17 03:30:00,
2013-07-16 23:35:00,78.7,71.6,30.14,WSW,240,5.0,5.0,79,0.00,,CLR,0.00,VWS V14.01,2013-07-17 03:35:00,
2013-07-16 23:40:00,78.7,71.6,30.14,SSW,205,8.0,10.0,79,0.00,,CLR,0.00,VWS V14.01,2013-07-17 03:40:00,
2013-07-16 23:45:00,78.7,71.6,30.14,SSW,200,2.0,2.0,79,0.00,,CLR,0.00,VWS V14.01,2013-07-17 03:45:00,
2013-07-16 23:50:00,78.7,71.6,30.14,West,271,4.0,9.0,79,0.00,,CLR,0.00,VWS V14.01,2013-07-17 03:50:00,
2013-07-16 23:55:00,78.7,71.6,30.14,WNW,291,3.0,3.0,79,0.00,,CLR,0.00,VWS V14.01,2013-07-17 03:55:00,